Overview Statistics Trail Chart Weather Telemetry Raw packets
 

This is the latest recevied weather packets stored in our database for station/object NC4M. If no packets are shown the sender has not sent any weather packets the latest 10 day(s).

<< 105 106 107 108 109 110 111 >>
Time Temp. Humidity Pressure Rain* Wind** Luminosity Snow
1787771813 31.67° C 59% 1016.9 hPa 0 mm - 173 W/m² -
1787771512 31.67° C 57% 1016.7 hPa 0 mm - 120 W/m² -
1787771211 31.67° C 58% 1016.9 hPa 0 mm - 339 W/m² -
1787770907 31.67° C 58% 1016.9 hPa 0 mm - 217 W/m² -
1787770605 31.67° C 58% 1016.9 hPa 0 mm - 201 W/m² -
1787770300 31.67° C 56% 1016.9 hPa 0 mm - 121 W/m² -
1787769998 31.67° C 58% 1017.3 hPa 0 mm - 136 W/m² -
1787769694 31.67° C 56% 1017.3 hPa 0 mm - 134 W/m² -
1787769392 31.11° C 58% 1017.1 hPa 0 mm - 132 W/m² -
1787769088 31.67° C 54% 1017.1 hPa 0 mm - 112 W/m² -
1787768782 31.67° C 62% 1017.3 hPa 0 mm - 446 W/m² -
1787768479 31.11° C 60% 1017.3 hPa 0 mm - 846 W/m² -
1787768174 31.11° C 57% 1017.1 hPa 0 mm - 856 W/m² -
1787767870 31.67° C 62% 1017.3 hPa 0 mm - 124 W/m² -
1787767565 31.67° C 63% 1017.3 hPa 0 mm - 823 W/m² -
1787767263 31.11° C 60% 1017.4 hPa 0 mm - 842 W/m² -
1787766657 31.11° C 59% 1017.4 hPa 0 mm - 834 W/m² -
1787766356 31.11° C 61% 1017.4 hPa 0 mm - 159 W/m² -
1787766050 31.11° C 61% 1017.6 hPa 0 mm - 692 W/m² -
1787765747 30.56° C 61% 1017.5 hPa 0 mm - 869 W/m² -
1787765443 31.11° C 62% 1017.3 hPa 0 mm - 815 W/m² -
1787765142 30.56° C 62% 1017.4 hPa 0 mm - 818 W/m² -
1787764839 30.56° C 60% 1017.4 hPa 0 mm - 817 W/m² -
1787764533 30° C 65% 1017.4 hPa 0 mm - 802 W/m² -
1787764232 30.56° C 63% 1017.5 hPa 0 mm - 803 W/m² -

* Rain latest hour (hover to see other rain measurements)
** Current wind speed in m/s (hover to see current wind gust speed)